Location: Poughquag
(41.6090°N, 73.6820°W)
Time: 09:10:33
(UTC-05:00)

Vanguard 1 - Pass Details

Date: 02 December 2023
Orbit: 653 x 3826 km, 34.3° (Epoch: 25 February)

Event Time Altitude Azimuth Distance (km) Brightness Sun altitude
Rises 15:13:30 0° 183° (S) 5,156 14.5 10.1°
Reaches altitude 10° 15:17:56 10° 166° (SSE) 4,676 14.0 9.4°
Maximum altitude 15:26:49 20° 126° (SE) 4,799 13.5 8.2°
Drops below altitude 10° 15:38:36 10° 89° (E) 6,453 13.8 6.4°
Sets 15:46:28 0° 76° (ENE) 7,827 14.1 5.3°
